Imperial, CA

9:06 AM PST on November 23, 2017 (GMT -0800)
Imperial County

Weather History for KIPL - October, 2013

Change the Weather History Date:

Thursday, October 24, 2013

  Actual Average Record
Temperature  
Mean Temperature 72 °F -  
Max Temperature 89 °F 86 °F 100 °F (1959)
Min Temperature 55 °F 59 °F 46 °F (1975)
Cooling Degree Days 6    
Growing Degree Days 22 (Base 50)    
Moisture  
Dew Point 38 °F    
Average Humidity 34    
Maximum Humidity 55    
Minimum Humidity 14    
Precipitation  
Precipitation 0.00 in - - ()
Sea Level Pressure  
Sea Level Pressure 29.85 in    
Wind  
Wind Speed 1 mph (WNW)    
Max Wind Speed 6 mph    
Max Gust Speed -    
Visibility 10 miles    
Events      
Averages and records for this station are not official NWS values.
T = Trace of Precipitation, MM = Missing Value Source: NWS Daily Summary

Daily Weather History Graph

Daily Weather History Graph

Search for Another Location

Airport or City:

Trip Planner

Search our weather history database for the weather conditions in past years. The results will help you decide how hot, cold, wet, or windy it might be!

Date:

Astronomy

Oct. 24, 2013 Rise Set
Actual Time 6:53 AM PDT 5:58 PM PDT
Civil Twilight 6:28 AM PDT 6:23 PM PDT
Nautical Twilight 5:59 AM PDT 6:52 PM PDT
Astronomical Twilight 5:30 AM PDT 7:21 PM PDT
Moon 10:33 PM PDT (10/24) 11:50 AM PDT (10/24)
Length of Visible Light 11h 55m
Length of Day
11h 05m
Waning Gibbous, 70% of the Moon is Illuminated
Oct 24
Waning Gibbous
Oct 26
Last Quarter
Nov 3
New
Nov 9
First Quarter
Nov 17
Full

Hourly Weather History & Observations

Time (PDT) Temp. Dew Point Humidity Pressure Visibility Wind Dir Wind Speed Gust Speed Precip Events Conditions
12:53 AM 62.1 °F 37.9 °F 41% 29.79 in 10.0 mi SW 3.5 mph - N/A   Clear
1:53 AM 61.0 °F 37.0 °F 41% 29.81 in 10.0 mi West 4.6 mph - N/A   Clear
2:53 AM 61.0 °F 30.9 °F 32% 29.81 in 10.0 mi Calm Calm - N/A   Clear
3:53 AM 60.1 °F 33.1 °F 36% 29.80 in 10.0 mi Calm Calm - N/A   Clear
4:53 AM 61.0 °F 36.0 °F 39% 29.81 in 10.0 mi Calm Calm - N/A   Clear
5:53 AM 55.9 °F 39.0 °F 53% 29.82 in 10.0 mi Calm Calm - N/A   Clear
6:53 AM 57.0 °F 41.0 °F 55% 29.83 in 10.0 mi Calm Calm - N/A   Clear
7:53 AM 59.0 °F 39.9 °F 49% 29.86 in 10.0 mi Calm Calm - N/A   Clear
8:53 AM 68.0 °F 48.9 °F 50% 29.88 in 7.0 mi Calm Calm - N/A   Clear
9:53 AM 72.0 °F 46.9 °F 41% 29.89 in 9.0 mi Calm Calm - N/A   Clear
10:53 AM 77.0 °F 43.0 °F 30% 29.89 in 10.0 mi Calm Calm - N/A   Clear
11:53 AM 81.0 °F 41.0 °F 24% 29.88 in 10.0 mi Calm Calm - N/A   Clear
12:53 PM 84.9 °F 39.0 °F 20% 29.86 in 10.0 mi Calm Calm - N/A   Clear
1:53 PM 86.0 °F 37.0 °F 18% 29.83 in 10.0 mi Calm Calm - N/A   Clear
2:53 PM 88.0 °F 36.0 °F 16% 29.83 in 10.0 mi NNE 3.5 mph - N/A   Clear
3:53 PM 88.0 °F 34.0 °F 15% 29.82 in 10.0 mi Calm Calm - N/A   Clear
4:53 PM 88.0 °F 32.0 °F 14% 29.82 in 10.0 mi Calm Calm - N/A   Clear
5:53 PM 84.9 °F 35.1 °F 17% 29.83 in 10.0 mi Calm Calm - N/A   Clear
6:53 PM 75.9 °F 37.0 °F 24% 29.84 in 10.0 mi Calm Calm - N/A   Clear
7:53 PM 73.0 °F 37.0 °F 27% 29.87 in 10.0 mi Calm Calm - N/A   Clear
8:53 PM 71.1 °F 39.0 °F 31% 29.88 in 10.0 mi Calm Calm - N/A   Clear
9:53 PM 64.0 °F 41.0 °F 43% 29.90 in 10.0 mi West 5.8 mph - N/A   Clear
10:53 PM 62.1 °F 39.9 °F 44% 29.91 in 10.0 mi Calm Calm - N/A   Clear
11:53 PM 61.0 °F 39.9 °F 46% 29.91 in 10.0 mi WNW 4.6 mph - N/A   Clear